Simultaneous Nadir Overpasses (SNOs) Predictions

Prediction of SNOs between AQUA and METOP-A Satellite Orbit:

Table of predicted SNOs for the next 14.0 days since TLE Epoch: 1/31/2015
Index Date (AQUA) Time (AQUA) Lat,Lon (AQUA) SZA (AQUA ) Date (METOP-A) Time (METOP-A) Lat,Lon (METOP-A) SZA (METOP-A ) Distance(km) Time Diff (sec)
1 02/02/2015 08:25:12 -73.78,-131.90 89.27 02/02/2015 08:24:00 -73.77,-131.84 89.26 1.98 72
2 02/02/2015 09:14:41 73.85, 35.57 90.81 02/02/2015 09:14:39 73.83, 35.63 90.79 3.33 2
3 02/02/2015 10:04:07 -73.88,-156.84 89.18 02/02/2015 10:05:19 -73.90,-156.87 89.17 2.65 72
4 02/05/2015 03:59:25 -73.75, -65.41 90.12 02/05/2015 03:58:24 -73.75, -65.48 90.10 2.44 61
5 02/05/2015 04:48:54 73.84, 102.05 89.97 02/05/2015 04:49:02 73.86, 102.10 89.99 3.12 8
6 02/05/2015 05:38:27 -74.22, -91.17 89.63 02/05/2015 05:39:36 -74.23, -89.66 89.70 45.64 69
7 02/07/2015 23:33:39 -73.77, 1.00 90.96 02/07/2015 23:32:48 -73.78, 0.97 90.95 0.91 51
8 02/08/2015 00:23:08 73.86, 168.45 89.13 02/08/2015 00:23:27 73.83, 168.43 89.10 3.14 19
9 02/08/2015 01:12:48 -74.59, -25.63 90.08 02/08/2015 01:13:53 -74.59, -22.32 90.23 97.90 65
10 02/10/2015 19:07:52 -73.78, 67.43 91.85 02/10/2015 19:07:12 -73.79, 67.41 91.83 1.46 40
11 02/10/2015 19:57:21 73.87,-125.13 88.24 02/10/2015 19:57:51 73.84,-125.14 88.21 3.08 30
12 02/13/2015 14:42:03 -73.78, 133.90 92.79 02/13/2015 14:41:35 -73.80, 133.83 92.75 3.24 28
13 02/13/2015 15:31:32 73.87, -58.67 87.31 02/13/2015 15:32:14 73.85, -58.73 87.28 3.19 42




NCC Satellite Simultaneous Nadir Overpasses (SNOs) Prediction Service
